| time (UTC) | temp F | wind direction | speed knots | gust knots | rain 1hr in | rain 24hr in | rain mn in | humidity % | barometer mb |
| 20260504050007 | 53 | 111 | 0.0 | 0.0 | 0.00 | 0.17 | 0.09 | 93 | 1011.3 |
| 20260504044509 | 53 | 114 | 0.0 | 0.0 | 0.00 | 0.17 | 0.09 | 93 | 1011.2 |
| 20260504043006 | 53 | 119 | 0.0 | 2.6 | 0.00 | 0.17 | 0.09 | 93 | 1011.3 |
| 20260504041506 | 53 | 171 | 0.0 | 0.0 | 0.00 | 0.17 | 0.09 | 93 | 1011.4 |
| 20260504040015 | 53 | 132 | 0.0 | 0.9 | 0.00 | 0.17 | 0.09 | 93 | 1011.0 |
| 20260504034503 | 54 | 103 | 0.0 | 2.6 | 0.00 | 0.17 | 0.09 | 92 | 1010.9 |
| 20260504033001 | 54 | 107 | 0.0 | 0.9 | 0.08 | 0.17 | 0.09 | 92 | 1010.9 |
| 20260504031604 | 54 | 95 | 0.0 | 1.7 | 0.09 | 0.17 | 0.09 | 92 | 1011.1 |
| 20260504030055 | 54 | 119 | 0.0 | 0.0 | 0.09 | 0.17 | 0.09 | 91 | 1011.5 |
| 20260504024557 | 55 | 143 | 0.0 | 0.0 | 0.09 | 0.17 | 0.09 | 90 | 1011.8 |
| 20260504023055 | 55 | 215 | 0.0 | 0.0 | 0.02 | 0.09 | 0.02 | 90 | 1012.4 |
| 20260504021556 | 55 | 124 | 0.0 | 0.0 | 0.00 | 0.08 | 0.00 | 89 | 1012.6 |
| 20260504014554 | 55 | 124 | 0.0 | 0.0 | 0.00 | 0.10 | 0.00 | 89 | 1011.9 |
| 20260504013050 | 55 | 158 | 0.0 | 0.0 | 0.00 | 0.10 | 0.00 | 89 | 1011.8 |
| 20260504011549 | 55 | 141 | 0.0 | 0.0 | 0.00 | 0.10 | 0.00 | 88 | 1011.9 |
| 20260504010047 | 55 | 115 | 0.0 | 0.0 | 0.00 | 0.10 | 0.00 | 88 | 1011.7 |
| 20260504004546 | 55 | 131 | 0.0 | 0.0 | 0.00 | 0.18 | 0.00 | 88 | 1012.2 |
| 20260504003047 | 55 | 116 | 0.0 | 0.0 | 0.00 | 0.18 | 0.00 | 88 | 1012.2 |
| 20260504001544 | 55 | 117 | 0.0 | 0.0 | 0.00 | 0.18 | 0.00 | 88 | 1012.0 |
| 20260504000047 | 56 | 185 | 0.0 | 0.9 | 0.00 | 0.18 | 0.00 | 87 | 1012.1 |
| 20260503234541 | 56 | 124 | 0.0 | 0.9 | 0.00 | 0.25 | 0.00 | 87 | 1012.0 |
| 20260503233040 | 56 | 125 | 0.0 | 0.9 | 0.00 | 0.25 | 0.00 | 87 | 1012.4 |
| 20260503231538 | 56 | 138 | 0.0 | 0.0 | 0.00 | 0.25 | 0.00 | 88 | 1012.4 |
| 20260503230037 | 56 | 115 | 0.0 | 1.7 | 0.00 | 0.28 | 0.00 | 88 | 1012.4 |
| 20260503224534 | 56 | 102 | 0.0 | 0.9 | 0.00 | 0.28 | 0.00 | 88 | 1012.6 |
| 20260503223033 | 56 | 92 | 0.0 | 0.0 | 0.00 | 0.28 | 0.00 | 88 | 1012.8 |
| 20260503221533 | 56 | 117 | 0.0 | 0.0 | 0.00 | 0.28 | 0.00 | 88 | 1013.0 |
| 20260503220029 | 56 | 105 | 0.0 | 0.0 | 0.00 | 0.28 | 0.28 | 88 | 1012.8 |
| 20260503214539 | 56 | 110 | 0.0 | 0.0 | 0.00 | 0.28 | 0.28 | 89 | 1012.8 |
| 20260503213029 | 57 | 110 | 0.0 | 0.0 | 0.00 | 0.28 | 0.28 | 89 | 1012.7 |
| 20260503211528 | 57 | 110 | 0.0 | 1.7 | 0.00 | 0.28 | 0.28 | 90 | 1012.6 |
| 20260503210027 | 57 | 108 | 0.0 | 0.0 | 0.00 | 0.28 | 0.28 | 91 | 1012.6 |
| 20260503204530 | 57 | 108 | 0.0 | 0.0 | 0.00 | 0.28 | 0.28 | 91 | 1012.6 |
| 20260503203026 | 57 | 108 | 0.0 | 0.0 | 0.00 | 0.28 | 0.28 | 92 | 1012.2 |
| 20260503201526 | 57 | 161 | 0.0 | 0.0 | 0.00 | 0.28 | 0.28 | 92 | 1011.9 |
| 20260503200033 | 57 | 106 | 0.0 | 0.0 | 0.00 | 0.28 | 0.28 | 92 | 1012.0 |
| 20260503194524 | 57 | 106 | 0.0 | 0.0 | 0.00 | 0.28 | 0.28 | 92 | 1012.0 |
| 20260503193031 | 57 | 132 | 0.0 | 0.0 | 0.00 | 0.28 | 0.28 | 92 | 1011.9 |
| 20260503191524 | 57 | 132 | 0.0 | 0.0 | 0.00 | 0.28 | 0.28 | 92 | 1011.8 |
| 20260503190022 | 58 | 132 | 0.0 | 0.0 | 0.00 | 0.28 | 0.28 | 92 | 1011.5 |
| 20260503184526 | 58 | 132 | 0.0 | 0.0 | 0.00 | 0.28 | 0.28 | 92 | 1011.7 |
| 20260503183022 | 58 | 132 | 0.0 | 0.0 | 0.01 | 0.28 | 0.28 | 92 | 1011.7 |
| 20260503181521 | 58 | 132 | 0.0 | 0.0 | 0.01 | 0.28 | 0.28 | 91 | 1011.7 |
| 20260503180038 | 58 | 132 | 0.0 | 0.0 | 0.01 | 0.28 | 0.28 | 91 | 1011.5 |
| 20260503174525 | 58 | 132 | 0.0 | 1.7 | 0.02 | 0.28 | 0.28 | 90 | 1011.3 |
| 20260503173025 | 58 | 127 | 0.0 | 0.0 | 0.02 | 0.27 | 0.27 | 90 | 1011.0 |
| 20260503171518 | 58 | 127 | 0.0 | 0.0 | 0.02 | 0.27 | 0.27 | 89 | 1011.1 |
| 20260503081535 | 59 | 98 | 0.0 | 1.7 | 0.00 | 0.20 | 0.20 | 82 | 1014.6 |
| 20260503071518 | 57 | 113 | 0.0 | 2.6 | 0.00 | 0.39 | 0.20 | 84 | 1014.5 |
| 20260503054517 | 55 | 102 | 0.0 | 7.0 | 0.00 | 0.43 | 0.20 | 89 | 1014.4 |
| 20260503053018 | 54 | 102 | 0.0 | 8.7 | 0.00 | 0.43 | 0.20 | 90 | 1014.4 |